Year,Month,Day,Hour,Minute,Value (Times are PST for temperature in C)
2011,06,23,00,02,11.70
2011,06,23,00,03,11.70
2011,06,23,00,04,11.70
2011,06,23,00,05,11.70
2011,06,23,00,06,11.70
2011,06,23,00,07,11.70
2011,06,23,00,08,11.70
2011,06,23,00,09,11.70
2011,06,23,00,10,11.70
2011,06,23,00,11,11.70
2011,06,23,00,13,11.60
2011,06,23,00,14,11.60
2011,06,23,00,15,11.60
2011,06,23,00,16,11.60
2011,06,23,00,17,11.60
2011,06,23,00,18,11.60
2011,06,23,00,19,11.60
2011,06,23,00,20,11.60
2011,06,23,00,21,11.60
2011,06,23,00,22,11.60
2011,06,23,00,23,11.60
2011,06,23,00,24,11.60
2011,06,23,00,25,11.60
2011,06,23,00,26,11.60
2011,06,23,00,27,11.60
2011,06,23,00,28,11.60
2011,06,23,00,29,11.60
2011,06,23,00,30,11.60
2011,06,23,00,31,11.60
2011,06,23,00,32,11.60
2011,06,23,00,33,11.60
2011,06,23,00,34,11.60
2011,06,23,00,35,11.60
2011,06,23,00,36,11.60
2011,06,23,00,37,11.60
2011,06,23,00,38,11.60
2011,06,23,00,39,11.60
2011,06,23,00,40,11.50
2011,06,23,00,41,11.50
2011,06,23,00,42,11.50
2011,06,23,00,43,11.50
2011,06,23,00,44,11.50
2011,06,23,00,45,11.40
2011,06,23,00,46,11.40
2011,06,23,00,47,11.40
2011,06,23,00,48,11.40
2011,06,23,00,49,11.40
2011,06,23,00,50,11.40
2011,06,23,00,51,11.30
2011,06,23,00,52,11.30
2011,06,23,00,53,11.30
2011,06,23,00,54,11.30
2011,06,23,00,55,11.30
2011,06,23,00,56,11.30
2011,06,23,00,57,11.30
2011,06,23,00,58,11.30
2011,06,23,00,59,11.30
2011,06,23,01,00,11.30
2011,06,23,01,01,11.30
2011,06,23,01,02,11.30
2011,06,23,01,03,11.20
2011,06,23,01,04,11.20
2011,06,23,01,05,11.20
2011,06,23,01,06,11.20
2011,06,23,01,07,11.20
2011,06,23,01,08,11.20
2011,06,23,01,09,11.20
2011,06,23,01,10,11.20
2011,06,23,01,11,11.20
2011,06,23,01,13,11.20
2011,06,23,01,14,11.30
2011,06,23,01,15,11.30
2011,06,23,01,16,11.30
2011,06,23,01,17,11.30
2011,06,23,01,18,11.30
2011,06,23,01,19,11.30
2011,06,23,01,20,11.30
2011,06,23,01,21,11.30
2011,06,23,01,22,11.30
2011,06,23,01,23,11.30
2011,06,23,01,24,11.30
2011,06,23,01,25,11.30
2011,06,23,01,26,11.30
2011,06,23,01,27,11.30
2011,06,23,01,28,11.30
2011,06,23,01,29,11.30
2011,06,23,01,30,11.30
2011,06,23,01,31,11.30
2011,06,23,01,32,11.30
2011,06,23,01,33,11.20
2011,06,23,01,34,11.20
2011,06,23,01,35,11.20
2011,06,23,01,36,11.20
2011,06,23,01,37,11.20
2011,06,23,01,39,11.20
2011,06,23,01,40,11.20
2011,06,23,01,41,11.20
2011,06,23,01,42,11.20
2011,06,23,01,43,11.20
2011,06,23,01,45,11.20
2011,06,23,01,46,11.20
2011,06,23,01,47,11.20
2011,06,23,01,48,11.20
2011,06,23,01,49,11.20
2011,06,23,01,50,11.20
2011,06,23,01,51,11.20
2011,06,23,01,52,11.20
2011,06,23,01,54,11.20
2011,06,23,01,55,11.20
2011,06,23,01,56,11.20
2011,06,23,01,57,11.20
2011,06,23,01,59,11.20
2011,06,23,02,00,11.20
2011,06,23,02,01,11.20
2011,06,23,02,02,11.20
2011,06,23,02,04,11.20
2011,06,23,02,05,11.20
2011,06,23,02,06,11.20
2011,06,23,02,07,11.20
2011,06,23,02,08,11.20
2011,06,23,02,09,11.20
2011,06,23,02,10,11.20
2011,06,23,02,11,11.20
2011,06,23,02,12,11.20
2011,06,23,02,14,11.20
2011,06,23,02,15,11.20
2011,06,23,02,16,11.20
2011,06,23,02,17,11.20
2011,06,23,02,18,11.20
2011,06,23,02,19,11.20
2011,06,23,02,20,11.10
2011,06,23,02,21,11.20
2011,06,23,02,22,11.10
2011,06,23,02,23,11.10
2011,06,23,02,24,11.10
2011,06,23,02,25,11.10
2011,06,23,02,26,11.10
2011,06,23,02,27,11.10
2011,06,23,02,28,11.10
2011,06,23,02,29,11.10
2011,06,23,02,30,11.10
2011,06,23,02,31,11.00
2011,06,23,02,32,11.00
2011,06,23,02,33,11.00
2011,06,23,02,34,11.00
2011,06,23,02,35,11.00
2011,06,23,02,36,11.00
2011,06,23,02,37,11.00
2011,06,23,02,38,11.00
2011,06,23,02,39,11.10
2011,06,23,02,41,11.10
2011,06,23,02,42,11.10
2011,06,23,02,43,11.10
2011,06,23,02,44,11.10
2011,06,23,02,45,11.10
2011,06,23,02,46,11.10
2011,06,23,02,47,11.10
2011,06,23,02,48,11.10
2011,06,23,02,49,11.10
2011,06,23,02,51,11.10
2011,06,23,02,52,11.10
2011,06,23,02,53,11.10
2011,06,23,02,54,11.10
2011,06,23,02,56,11.10
2011,06,23,02,57,11.10
2011,06,23,02,58,11.10
2011,06,23,02,59,11.10
2011,06,23,03,00,11.00
2011,06,23,03,01,11.00
2011,06,23,03,02,10.90
2011,06,23,03,03,10.90
2011,06,23,03,05,10.90
2011,06,23,03,06,10.90
2011,06,23,03,07,10.90
2011,06,23,03,08,10.80
2011,06,23,03,10,10.80
2011,06,23,03,11,10.80
2011,06,23,03,12,10.80
2011,06,23,03,13,10.80
2011,06,23,03,15,10.80
2011,06,23,03,16,10.80
2011,06,23,03,17,10.80
2011,06,23,03,18,10.70
2011,06,23,03,19,10.70
2011,06,23,03,20,10.70
2011,06,23,03,21,10.70
2011,06,23,03,22,10.70
2011,06,23,03,23,10.70
2011,06,23,03,24,10.70
2011,06,23,03,26,10.70
2011,06,23,03,27,10.70
2011,06,23,03,28,10.70
2011,06,23,03,29,10.70
2011,06,23,03,30,10.70
2011,06,23,03,31,10.70
2011,06,23,03,32,10.80
2011,06,23,03,33,10.80
2011,06,23,03,34,10.80
2011,06,23,03,35,10.80
2011,06,23,03,37,10.80
2011,06,23,03,38,10.80
2011,06,23,03,39,10.80
2011,06,23,03,40,10.90
2011,06,23,03,41,10.90
2011,06,23,03,42,10.90
2011,06,23,03,43,10.90
2011,06,23,03,44,10.90
2011,06,23,03,45,10.90
2011,06,23,03,46,10.90
2011,06,23,03,48,10.90
2011,06,23,03,49,10.90
2011,06,23,03,50,10.90
2011,06,23,03,51,10.90
2011,06,23,03,53,10.90
2011,06,23,03,54,10.90
2011,06,23,03,55,10.90
2011,06,23,03,56,10.90
2011,06,23,03,57,10.90
2011,06,23,03,58,10.90
2011,06,23,03,59,10.90
2011,06,23,04,00,10.90
2011,06,23,04,02,10.90
2011,06,23,04,03,10.90
2011,06,23,04,04,10.90
2011,06,23,04,05,10.90
2011,06,23,04,07,10.90
2011,06,23,04,08,10.90
2011,06,23,04,09,10.90
2011,06,23,04,10,10.90
2011,06,23,04,11,10.90
2011,06,23,04,12,10.80
2011,06,23,04,13,10.80
2011,06,23,04,14,10.80
2011,06,23,04,15,10.80
2011,06,23,04,17,10.80
2011,06,23,04,18,10.80
2011,06,23,04,19,10.80
2011,06,23,04,20,10.80
2011,06,23,04,21,10.80
2011,06,23,04,22,10.80
2011,06,23,04,24,10.80
2011,06,23,04,25,10.80
2011,06,23,04,26,10.80
2011,06,23,04,28,10.80
2011,06,23,04,29,10.80
2011,06,23,04,30,10.80
2011,06,23,04,31,10.80
2011,06,23,04,33,10.80
2011,06,23,04,34,10.80
2011,06,23,04,35,10.80
2011,06,23,04,36,10.80
2011,06,23,04,38,10.80
2011,06,23,04,39,10.80
2011,06,23,04,40,10.80
2011,06,23,04,41,10.80
2011,06,23,04,42,10.80
2011,06,23,04,44,10.80
2011,06,23,04,45,10.80
2011,06,23,04,46,10.70
2011,06,23,04,47,10.70
2011,06,23,04,49,10.70
2011,06,23,04,50,10.70
2011,06,23,04,51,10.70
2011,06,23,04,53,10.70
2011,06,23,04,54,10.70
2011,06,23,04,55,10.70
2011,06,23,04,56,10.70
2011,06,23,04,58,10.70
2011,06,23,04,59,10.70
2011,06,23,05,00,10.70
2011,06,23,05,01,10.70
2011,06,23,05,03,10.70
2011,06,23,05,04,10.70
2011,06,23,05,05,10.70
2011,06,23,05,07,10.70
2011,06,23,05,08,10.70
2011,06,23,05,09,10.70
2011,06,23,05,10,10.70
2011,06,23,05,12,10.70
2011,06,23,05,13,10.70
2011,06,23,05,14,10.70
2011,06,23,05,16,10.60
2011,06,23,05,17,10.60
2011,06,23,05,18,10.60
2011,06,23,05,19,10.60
2011,06,23,05,20,10.60
2011,06,23,05,21,10.60
2011,06,23,05,22,10.60
2011,06,23,05,23,10.60
2011,06,23,05,24,10.60
2011,06,23,05,25,10.60
2011,06,23,05,27,10.60
2011,06,23,05,28,10.60
2011,06,23,05,29,10.60
2011,06,23,05,30,10.60
2011,06,23,05,31,10.60
2011,06,23,05,32,10.60
2011,06,23,05,33,10.60
2011,06,23,05,34,10.60
2011,06,23,05,35,10.60
2011,06,23,05,37,10.60
2011,06,23,05,38,10.60
2011,06,23,05,39,10.60
2011,06,23,05,40,10.60
2011,06,23,05,42,10.60
2011,06,23,05,43,10.60
2011,06,23,05,44,10.60
2011,06,23,05,46,10.60
2011,06,23,05,47,10.60
2011,06,23,05,48,10.60
2011,06,23,05,49,10.60
2011,06,23,05,50,10.60
2011,06,23,05,51,10.60
2011,06,23,05,52,10.60
2011,06,23,05,53,10.60
2011,06,23,05,54,10.60
2011,06,23,05,56,10.60
2011,06,23,05,57,10.60
2011,06,23,05,58,10.60
2011,06,23,05,59,10.60
2011,06,23,06,01,10.60
2011,06,23,06,02,10.60
2011,06,23,06,03,10.60
2011,06,23,06,04,10.60
2011,06,23,06,06,10.60
2011,06,23,06,07,10.60
2011,06,23,06,08,10.60
2011,06,23,06,09,10.60
2011,06,23,06,11,10.60
2011,06,23,06,12,10.50
2011,06,23,06,13,10.50
2011,06,23,06,14,10.50
2011,06,23,06,16,10.50
2011,06,23,06,17,10.50
2011,06,23,06,18,10.50
2011,06,23,06,19,10.60
2011,06,23,06,21,10.60
2011,06,23,06,22,10.60
2011,06,23,06,23,10.60
2011,06,23,06,25,10.60
2011,06,23,06,26,10.60
2011,06,23,06,27,10.60
2011,06,23,06,28,10.60
2011,06,23,06,29,10.70
2011,06,23,06,30,10.70
2011,06,23,06,31,10.70
2011,06,23,06,32,10.70
2011,06,23,06,33,10.70
2011,06,23,06,34,10.80
2011,06,23,06,36,10.80
2011,06,23,06,37,10.80
2011,06,23,06,38,10.80
2011,06,23,06,39,10.80
2011,06,23,06,40,10.80
2011,06,23,06,41,10.90
2011,06,23,06,42,10.90
2011,06,23,06,43,10.90
2011,06,23,06,44,10.90
2011,06,23,06,45,10.90
2011,06,23,06,47,10.90
2011,06,23,06,48,10.90
2011,06,23,06,49,11.00
2011,06,23,06,50,11.00
2011,06,23,06,52,11.10
2011,06,23,06,53,11.10
2011,06,23,06,54,11.20
2011,06,23,06,55,11.20
2011,06,23,06,57,11.20
2011,06,23,06,58,11.20
2011,06,23,06,59,11.20
2011,06,23,07,01,11.20
2011,06,23,07,02,11.20
2011,06,23,07,03,11.10
2011,06,23,07,04,11.10
2011,06,23,07,06,11.10
2011,06,23,07,07,11.10
2011,06,23,07,08,11.10
2011,06,23,07,09,11.10
2011,06,23,07,11,11.10
2011,06,23,07,12,11.00
2011,06,23,07,13,11.00
2011,06,23,07,14,11.00
2011,06,23,07,16,11.00
2011,06,23,07,17,11.00
2011,06,23,07,18,11.00
2011,06,23,07,19,11.10
2011,06,23,07,20,11.10
2011,06,23,07,21,11.10
2011,06,23,07,22,11.10
2011,06,23,07,23,11.10
2011,06,23,07,25,11.10
2011,06,23,07,26,11.20
2011,06,23,07,27,11.20
2011,06,23,07,28,11.30
2011,06,23,07,30,11.30
2011,06,23,07,31,11.40
2011,06,23,07,32,11.40
2011,06,23,07,33,11.40
2011,06,23,07,34,11.40
2011,06,23,07,36,11.40
2011,06,23,07,37,11.40
2011,06,23,07,38,11.40
2011,06,23,07,39,11.30
2011,06,23,07,40,11.30
2011,06,23,07,42,11.30
2011,06,23,07,43,11.20
2011,06,23,07,44,11.20
2011,06,23,07,45,11.20
2011,06,23,07,47,11.30
2011,06,23,07,48,11.40
2011,06,23,07,49,11.40
2011,06,23,07,50,11.50
2011,06,23,07,51,11.50
2011,06,23,07,53,11.60
2011,06,23,07,54,11.60
2011,06,23,07,55,11.50
2011,06,23,07,56,11.50
2011,06,23,07,57,11.40
2011,06,23,07,58,11.40
2011,06,23,07,59,11.40
2011,06,23,08,00,11.30
2011,06,23,08,01,11.30
2011,06,23,08,02,11.30
2011,06,23,08,04,11.30
2011,06,23,08,05,11.30
2011,06,23,08,06,11.30
2011,06,23,08,07,11.40
2011,06,23,08,09,11.40
2011,06,23,08,10,11.50
2011,06,23,08,11,11.50
2011,06,23,08,12,11.50
2011,06,23,08,14,11.60
2011,06,23,08,15,11.60
2011,06,23,08,16,11.70
2011,06,23,08,17,11.70
2011,06,23,08,18,11.70
2011,06,23,08,20,11.70
2011,06,23,08,21,11.70
2011,06,23,08,22,11.70
2011,06,23,08,23,11.70
2011,06,23,08,25,11.70
2011,06,23,08,26,11.70
2011,06,23,08,27,11.70
2011,06,23,08,28,11.70
2011,06,23,08,30,11.70
2011,06,23,08,31,11.70
2011,06,23,08,32,11.70
2011,06,23,08,33,11.70
2011,06,23,08,35,11.70
2011,06,23,08,36,11.70
2011,06,23,08,37,11.70
2011,06,23,08,38,11.70
2011,06,23,08,40,11.70
2011,06,23,08,41,11.70
2011,06,23,08,42,11.70
2011,06,23,08,43,11.60
2011,06,23,08,44,11.60
2011,06,23,08,45,11.70
2011,06,23,08,46,11.70
2011,06,23,08,47,11.80
2011,06,23,08,48,11.90
2011,06,23,08,50,12.10
2011,06,23,08,51,12.20
2011,06,23,08,52,12.20
2011,06,23,08,53,12.20
2011,06,23,08,55,12.20
2011,06,23,08,56,12.10
2011,06,23,08,57,12.10
2011,06,23,08,59,12.10
2011,06,23,09,00,12.10
2011,06,23,09,01,12.10
2011,06,23,09,02,12.10
2011,06,23,09,03,12.20
2011,06,23,09,04,12.20
2011,06,23,09,05,12.30
2011,06,23,09,07,12.30
2011,06,23,09,08,12.60
2011,06,23,09,09,12.70
2011,06,23,09,10,12.80
2011,06,23,09,12,12.80
2011,06,23,09,13,12.90
2011,06,23,09,14,13.00
2011,06,23,09,16,13.10
2011,06,23,09,17,13.20
2011,06,23,09,18,13.20
2011,06,23,09,19,13.10
2011,06,23,09,21,13.10
2011,06,23,09,22,13.10
2011,06,23,09,23,13.10
2011,06,23,09,24,13.20
2011,06,23,09,26,13.20
2011,06,23,09,27,13.10
2011,06,23,09,28,13.00
2011,06,23,09,29,13.00
2011,06,23,09,31,13.10
2011,06,23,09,32,13.10
2011,06,23,09,33,13.10
2011,06,23,09,35,13.10
2011,06,23,09,36,13.00
2011,06,23,09,37,13.10
2011,06,23,09,38,13.10
2011,06,23,09,40,13.10
2011,06,23,09,41,13.20
2011,06,23,09,42,13.20
2011,06,23,09,43,13.20
2011,06,23,09,45,13.20
2011,06,23,09,46,13.20
2011,06,23,09,47,13.30
2011,06,23,09,48,13.30
2011,06,23,09,50,13.30
2011,06,23,09,51,13.30
2011,06,23,09,52,13.40
2011,06,23,09,53,13.40
2011,06,23,09,54,13.40
2011,06,23,09,56,13.40
2011,06,23,09,57,13.40
2011,06,23,09,58,13.50
2011,06,23,09,59,13.60
2011,06,23,10,00,13.70
2011,06,23,10,01,13.70
2011,06,23,10,02,13.80
2011,06,23,10,03,13.80
2011,06,23,10,04,13.80
2011,06,23,10,06,13.90
2011,06,23,10,07,13.80
2011,06,23,10,08,13.80
2011,06,23,10,10,13.80
2011,06,23,10,11,13.80
2011,06,23,10,12,13.80
2011,06,23,10,13,13.80
2011,06,23,10,14,13.70
2011,06,23,10,16,13.70
2011,06,23,10,17,13.70
2011,06,23,10,18,13.70
2011,06,23,10,19,13.70
2011,06,23,10,21,13.70
2011,06,23,10,22,13.80
2011,06,23,10,23,14.10
2011,06,23,10,24,14.10
2011,06,23,10,26,14.20
2011,06,23,10,27,14.10
2011,06,23,10,28,14.20
2011,06,23,10,29,14.10
2011,06,23,10,31,14.10
2011,06,23,10,32,14.10
2011,06,23,10,33,14.00
2011,06,23,10,34,14.00
2011,06,23,10,36,14.00
2011,06,23,10,37,13.90
2011,06,23,10,38,13.90
2011,06,23,10,40,13.80
2011,06,23,10,41,13.70
2011,06,23,10,42,13.70
2011,06,23,10,43,13.70
2011,06,23,10,45,13.70
2011,06,23,10,46,13.70
2011,06,23,10,47,13.70
2011,06,23,10,48,13.70
2011,06,23,10,49,13.80
2011,06,23,10,51,13.80
2011,06,23,10,52,13.80
2011,06,23,10,53,13.70
2011,06,23,10,54,13.80
2011,06,23,10,56,13.80
2011,06,23,10,57,13.90
2011,06,23,10,58,14.10
2011,06,23,10,59,14.10
2011,06,23,11,00,14.20
2011,06,23,11,02,14.20
2011,06,23,11,03,14.30
2011,06,23,11,04,14.40
2011,06,23,11,05,14.40
2011,06,23,11,06,14.40
2011,06,23,11,07,14.60
2011,06,23,11,08,14.60
2011,06,23,11,09,14.70
2011,06,23,11,10,14.90
2011,06,23,11,12,15.10
2011,06,23,11,13,15.10
2011,06,23,11,14,15.10
2011,06,23,11,16,15.10
2011,06,23,11,17,15.10
2011,06,23,11,18,15.00
2011,06,23,11,19,14.90
2011,06,23,11,21,14.90
2011,06,23,11,22,14.90
2011,06,23,11,23,15.00
2011,06,23,11,24,15.10
2011,06,23,11,26,15.00
2011,06,23,11,27,14.90
2011,06,23,11,28,14.90
2011,06,23,11,29,14.90
2011,06,23,11,31,14.90
2011,06,23,11,32,14.80
2011,06,23,11,33,14.80
2011,06,23,11,34,14.80
2011,06,23,11,36,14.80
2011,06,23,11,37,14.80
2011,06,23,11,38,14.80
2011,06,23,11,39,14.90
2011,06,23,11,40,14.80
2011,06,23,11,42,14.80
2011,06,23,11,43,14.90
2011,06,23,11,44,14.90
2011,06,23,11,45,15.00
2011,06,23,11,47,15.00
2011,06,23,11,48,15.10
2011,06,23,11,49,15.10
2011,06,23,11,50,15.10
2011,06,23,11,52,15.10
2011,06,23,11,53,15.10
2011,06,23,11,54,15.10
2011,06,23,11,55,15.00
2011,06,23,11,57,15.00
2011,06,23,11,58,15.10
2011,06,23,11,59,15.20
2011,06,23,12,00,15.30
2011,06,23,12,02,15.30
2011,06,23,12,03,15.50
2011,06,23,12,04,15.60
2011,06,23,12,05,15.70
2011,06,23,12,07,15.80
2011,06,23,12,08,15.90
2011,06,23,12,09,15.90
2011,06,23,12,10,15.90
2011,06,23,12,12,16.00
2011,06,23,12,13,16.00
2011,06,23,12,14,16.00
2011,06,23,12,15,16.00
2011,06,23,12,16,15.90
2011,06,23,12,18,15.90
2011,06,23,12,19,15.90
2011,06,23,12,20,15.90
2011,06,23,12,21,15.90
2011,06,23,12,23,15.90
2011,06,23,12,24,16.00
2011,06,23,12,25,16.10
2011,06,23,12,26,16.10
2011,06,23,12,28,16.20
2011,06,23,12,29,16.10
2011,06,23,12,30,16.10
2011,06,23,12,31,16.20
2011,06,23,12,32,16.30
2011,06,23,12,33,16.30
2011,06,23,12,34,16.30
2011,06,23,12,35,16.30
2011,06,23,12,36,16.30
2011,06,23,12,37,16.30
2011,06,23,12,38,16.30
2011,06,23,12,39,16.40
2011,06,23,12,40,16.40
2011,06,23,12,41,16.40
2011,06,23,12,42,16.50
2011,06,23,12,43,16.60
2011,06,23,12,44,16.60
2011,06,23,12,45,16.70
2011,06,23,12,46,16.80
2011,06,23,12,47,16.80
2011,06,23,12,48,16.80
2011,06,23,12,49,16.80
2011,06,23,12,50,16.70
2011,06,23,12,51,16.70
2011,06,23,12,52,16.70
2011,06,23,12,53,16.70
2011,06,23,12,54,16.70
2011,06,23,12,55,16.80
2011,06,23,12,56,16.90
2011,06,23,12,57,16.90
2011,06,23,12,58,16.90
2011,06,23,12,59,16.90
2011,06,23,13,00,16.80
2011,06,23,13,01,16.70
2011,06,23,13,02,16.60
2011,06,23,13,03,16.60
2011,06,23,13,04,16.50
2011,06,23,13,05,16.40
2011,06,23,13,06,16.50
2011,06,23,13,07,16.40
2011,06,23,13,08,16.40
2011,06,23,13,09,16.40
2011,06,23,13,10,16.40
2011,06,23,13,11,16.40
2011,06,23,13,12,16.60
2011,06,23,13,13,16.70
2011,06,23,13,14,16.70
2011,06,23,13,15,16.60
2011,06,23,13,16,16.60
2011,06,23,13,17,16.60
2011,06,23,13,18,16.60
2011,06,23,13,19,16.60
2011,06,23,13,20,16.70
2011,06,23,13,21,16.70
2011,06,23,13,22,16.70
2011,06,23,13,23,16.80
2011,06,23,13,24,16.80
2011,06,23,13,25,16.90
2011,06,23,13,26,16.90
2011,06,23,13,27,17.00
2011,06,23,13,28,17.10
2011,06,23,13,29,17.10
2011,06,23,13,30,17.10
2011,06,23,13,31,17.00
2011,06,23,13,32,16.90
2011,06,23,13,34,16.90
2011,06,23,13,35,16.80
2011,06,23,13,36,16.80
2011,06,23,13,37,16.80
2011,06,23,13,39,16.80
2011,06,23,13,40,16.90
2011,06,23,13,41,16.90
2011,06,23,13,42,17.10
2011,06,23,13,43,17.10
2011,06,23,13,44,17.00
2011,06,23,13,45,16.90
2011,06,23,13,46,17.00
2011,06,23,13,47,17.10
2011,06,23,13,49,17.20
2011,06,23,13,50,17.20
2011,06,23,13,51,17.20
2011,06,23,13,52,17.20
2011,06,23,13,54,17.20
2011,06,23,13,55,17.30
2011,06,23,13,57,17.40
2011,06,23,13,58,17.40
2011,06,23,13,59,17.40
2011,06,23,14,00,17.40
2011,06,23,14,01,17.40
2011,06,23,14,03,17.40
2011,06,23,14,04,17.40
2011,06,23,14,05,17.60
2011,06,23,14,06,17.70
2011,06,23,14,08,17.70
2011,06,23,14,09,17.60
2011,06,23,14,10,17.60
2011,06,23,14,11,17.60
2011,06,23,14,13,17.60
2011,06,23,14,14,17.80
2011,06,23,14,15,17.80
2011,06,23,14,16,17.80
2011,06,23,14,18,17.70
2011,06,23,14,19,17.70
2011,06,23,14,20,17.70
2011,06,23,14,21,17.80
2011,06,23,14,22,17.80
2011,06,23,14,24,17.80
2011,06,23,14,25,17.90
2011,06,23,14,26,17.90
2011,06,23,14,27,17.80
2011,06,23,14,29,17.70
2011,06,23,14,30,17.80
2011,06,23,14,31,17.80
2011,06,23,14,32,17.70
2011,06,23,14,33,17.70
2011,06,23,14,35,17.60
2011,06,23,14,36,17.60
2011,06,23,14,37,17.60
2011,06,23,14,38,17.60
2011,06,23,14,40,17.60
2011,06,23,14,41,17.60
2011,06,23,14,42,17.50
2011,06,23,14,43,17.60
2011,06,23,14,45,17.70
2011,06,23,14,46,17.80
2011,06,23,14,47,17.80
2011,06,23,14,48,17.90
2011,06,23,14,50,18.00
2011,06,23,14,51,18.00
2011,06,23,14,52,17.80
2011,06,23,14,54,17.80
2011,06,23,14,55,17.80
2011,06,23,14,56,17.80
2011,06,23,14,57,17.80
2011,06,23,14,59,17.80
2011,06,23,15,00,18.00
2011,06,23,15,01,18.20
2011,06,23,15,02,18.20
2011,06,23,15,03,18.20
2011,06,23,15,05,18.30
2011,06,23,15,06,18.10
2011,06,23,15,07,17.90
2011,06,23,15,09,17.90
2011,06,23,15,10,17.80
2011,06,23,15,11,17.90
2011,06,23,15,12,17.80
2011,06,23,15,13,17.90
2011,06,23,15,14,17.90
2011,06,23,15,15,17.80
2011,06,23,15,16,17.80
2011,06,23,15,17,17.80
2011,06,23,15,18,17.80
2011,06,23,15,20,17.80
2011,06,23,15,21,17.90
2011,06,23,15,22,17.90
2011,06,23,15,23,18.00
2011,06,23,15,25,18.10
2011,06,23,15,26,18.10
2011,06,23,15,27,17.90
2011,06,23,15,28,17.80
2011,06,23,15,29,17.80
2011,06,23,15,30,17.90
2011,06,23,15,31,18.00
2011,06,23,15,32,17.90
2011,06,23,15,33,17.90
2011,06,23,15,35,17.80
2011,06,23,15,36,17.90
2011,06,23,15,37,18.00
2011,06,23,15,39,18.10
2011,06,23,15,40,18.00
2011,06,23,15,41,17.90
2011,06,23,15,42,17.90
2011,06,23,15,43,17.90
2011,06,23,15,44,17.90
2011,06,23,15,45,17.90
2011,06,23,15,46,18.00
2011,06,23,15,48,18.00
2011,06,23,15,49,17.90
2011,06,23,15,50,17.90
2011,06,23,15,51,17.80
2011,06,23,15,52,17.80
2011,06,23,15,54,17.90
2011,06,23,15,55,18.00
2011,06,23,15,56,18.10
2011,06,23,15,57,18.20
2011,06,23,15,59,18.10
2011,06,23,16,00,18.10
2011,06,23,16,01,18.10
2011,06,23,16,02,18.10
2011,06,23,16,04,18.20
2011,06,23,16,05,18.10
2011,06,23,16,06,18.10
2011,06,23,16,08,18.10
2011,06,23,16,09,18.10
2011,06,23,16,10,18.00
2011,06,23,16,11,17.80
2011,06,23,16,12,17.80
2011,06,23,16,13,17.80
2011,06,23,16,15,17.90
2011,06,23,16,16,18.00
2011,06,23,16,17,18.10
2011,06,23,16,18,18.20
2011,06,23,16,19,18.20
2011,06,23,16,21,18.20
2011,06,23,16,22,17.90
2011,06,23,16,23,17.80
2011,06,23,16,25,17.70
2011,06,23,16,26,17.70
2011,06,23,16,27,17.80
2011,06,23,16,28,17.80
2011,06,23,16,30,17.90
2011,06,23,16,31,17.90
2011,06,23,16,32,17.90
2011,06,23,16,33,17.80
2011,06,23,16,34,17.70
2011,06,23,16,36,17.70
2011,06,23,16,37,17.60
2011,06,23,16,38,17.50
2011,06,23,16,39,17.50
2011,06,23,16,40,17.40
2011,06,23,16,42,17.30
2011,06,23,16,43,17.30
2011,06,23,16,48,17.30
2011,06,23,16,49,17.30
2011,06,23,16,50,17.30
2011,06,23,16,51,17.30
2011,06,23,16,52,17.20
2011,06,23,16,54,17.20
2011,06,23,16,55,17.30
2011,06,23,16,56,17.30
2011,06,23,16,57,17.40
2011,06,23,16,59,17.40
2011,06,23,17,00,17.60
2011,06,23,17,01,17.60
2011,06,23,17,02,17.70
2011,06,23,17,04,17.70
2011,06,23,17,05,17.70
2011,06,23,17,06,17.70
2011,06,23,17,07,17.70
2011,06,23,17,09,17.70
2011,06,23,17,10,17.60
2011,06,23,17,11,17.60
2011,06,23,17,13,17.70
2011,06,23,17,14,17.70
2011,06,23,17,15,17.80
2011,06,23,17,16,17.70
2011,06,23,17,17,17.60
2011,06,23,17,19,17.50
2011,06,23,17,20,17.50
2011,06,23,17,21,17.50
2011,06,23,17,23,17.40
2011,06,23,17,24,17.30
2011,06,23,17,25,17.30
2011,06,23,17,26,17.30
2011,06,23,17,28,17.30
2011,06,23,17,29,17.30
2011,06,23,17,30,17.30
2011,06,23,17,31,17.30
2011,06,23,17,32,17.40
2011,06,23,17,33,17.50
2011,06,23,17,34,17.60
2011,06,23,17,35,17.70
2011,06,23,17,36,17.70
2011,06,23,17,37,17.80
2011,06,23,17,38,17.80
2011,06,23,17,39,17.70
2011,06,23,17,40,17.70
2011,06,23,17,41,17.50
2011,06,23,17,42,17.40
2011,06,23,17,43,17.30
2011,06,23,17,44,17.30
2011,06,23,17,45,17.20
2011,06,23,17,46,17.10
2011,06,23,17,47,17.10
2011,06,23,17,48,17.10
2011,06,23,17,49,17.10
2011,06,23,17,50,17.10
2011,06,23,17,51,17.10
2011,06,23,17,52,17.10
2011,06,23,17,53,17.10
2011,06,23,17,54,17.10
2011,06,23,17,55,17.10
2011,06,23,17,56,17.20
2011,06,23,17,57,17.20
2011,06,23,17,58,17.20
2011,06,23,17,59,17.20
2011,06,23,18,00,17.10
2011,06,23,18,02,17.10
2011,06,23,18,03,17.10
2011,06,23,18,04,17.00
2011,06,23,18,05,17.00
2011,06,23,18,06,17.00
2011,06,23,18,07,17.00
2011,06,23,18,08,17.00
2011,06,23,18,09,17.00
2011,06,23,18,10,17.00
2011,06,23,18,11,17.00
2011,06,23,18,12,17.00
2011,06,23,18,13,16.90
2011,06,23,18,14,16.90
2011,06,23,18,15,16.80
2011,06,23,18,16,16.80
2011,06,23,18,17,16.80
2011,06,23,18,18,16.70
2011,06,23,18,19,16.70
2011,06,23,18,20,16.70
2011,06,23,18,21,16.70
2011,06,23,18,22,16.70
2011,06,23,18,23,16.70
2011,06,23,18,24,16.60
2011,06,23,18,25,16.60
2011,06,23,18,26,16.60
2011,06,23,18,27,16.50
2011,06,23,18,28,16.50
2011,06,23,18,29,16.60
2011,06,23,18,30,16.60
2011,06,23,18,31,16.60
2011,06,23,18,32,16.50
2011,06,23,18,34,16.40
2011,06,23,18,35,16.30
2011,06,23,18,36,16.20
2011,06,23,18,37,16.20
2011,06,23,18,39,16.10
2011,06,23,18,40,16.10
2011,06,23,18,41,16.10
2011,06,23,18,42,16.10
2011,06,23,18,44,16.10
2011,06,23,18,45,16.10
2011,06,23,18,46,16.10
2011,06,23,18,47,16.10
2011,06,23,18,49,16.10
2011,06,23,18,50,16.10
2011,06,23,18,51,16.10
2011,06,23,18,52,15.90
2011,06,23,18,54,15.90
2011,06,23,18,55,15.90
2011,06,23,18,56,15.90
2011,06,23,18,57,15.90
2011,06,23,18,59,15.80
2011,06,23,19,00,15.80
2011,06,23,19,01,15.80
2011,06,23,19,03,15.80
2011,06,23,19,04,15.80
2011,06,23,19,05,15.90
2011,06,23,19,07,15.80
2011,06,23,19,08,15.80
2011,06,23,19,09,15.80
2011,06,23,19,10,15.80
2011,06,23,19,12,15.80
2011,06,23,19,13,15.80
2011,06,23,19,14,15.80
2011,06,23,19,15,15.80
2011,06,23,19,17,15.80
2011,06,23,19,18,15.80
2011,06,23,19,19,15.80
2011,06,23,19,20,15.70
2011,06,23,19,21,15.70
2011,06,23,19,22,15.70
2011,06,23,19,23,15.70
2011,06,23,19,24,15.80
2011,06,23,19,26,15.80
2011,06,23,19,27,15.80
2011,06,23,19,28,15.80
2011,06,23,19,29,15.80
2011,06,23,19,31,15.80
2011,06,23,19,32,15.90
2011,06,23,19,33,16.00
2011,06,23,19,34,16.10
2011,06,23,19,36,16.10
2011,06,23,19,37,16.10
2011,06,23,19,38,16.00
2011,06,23,19,39,16.00
2011,06,23,19,41,15.90
2011,06,23,19,42,15.90
2011,06,23,19,43,15.90
2011,06,23,19,44,15.90
2011,06,23,19,46,15.90
2011,06,23,19,47,15.90
2011,06,23,19,48,15.90
2011,06,23,19,49,15.80
2011,06,23,19,51,15.80
2011,06,23,19,52,15.70
2011,06,23,19,53,15.70
2011,06,23,19,54,15.70
2011,06,23,19,56,15.60
2011,06,23,19,57,15.60
2011,06,23,19,58,15.60
2011,06,23,19,59,15.60
2011,06,23,20,01,15.50
2011,06,23,20,02,15.40
2011,06,23,20,03,15.40
2011,06,23,20,05,15.40
2011,06,23,20,06,15.30
2011,06,23,20,07,15.30
2011,06,23,20,09,15.30
2011,06,23,20,10,15.20
2011,06,23,20,11,15.20
2011,06,23,20,12,15.20
2011,06,23,20,13,15.10
2011,06,23,20,14,15.00
2011,06,23,20,15,15.00
2011,06,23,20,16,15.00